KLM758 MPTO-EHAM

Flight info

Callsign KLM758
Flight time N/A
Altitude 33000
Route EGETA3A EGETA DCT AGUJA UM597 BETIR M597 KEEKA/M084F330 DCT FIVZE/M084F350 DCT 27N057W 31N050W 37N040W 42N030W/M084F370 45N020W 47N015W DCT TAMEL DCT EVBAK DCT GAPLI/N0480F370 DCT GAJIT DCT ENHAQ M197 REDFA
Aircraft B77W/H-SDE1E2E3FGHIJ2J3J4J5M1RWXY/LB1D1

Departure

Time N/A
Airport Tocumen International Airport (MPTO)

Arrival

Time 2026-04-29 20:23
Airport Amsterdam Airport Schiphol (EHAM)
Time Latitude Longitude Altitude Speed Heading
2026-04-29 19:10 50.22922 -7.08878 37034 ft 474 kts 73°
2026-04-29 19:10 50.24106 -7.04068 37033 ft 474 kts 73°
2026-04-29 19:11 50.26467 -6.94445 37032 ft 474 kts 74°
2026-04-29 19:11 50.28825 -6.84798 37028 ft 474 kts 73°
2026-04-29 19:12 50.31171 -6.75153 37039 ft 475 kts 74°
2026-04-29 19:12 50.33513 -6.65485 37037 ft 475 kts 74°
2026-04-29 19:13 50.35849 -6.55796 37037 ft 476 kts 74°
2026-04-29 19:13 50.38164 -6.46152 37009 ft 476 kts 74°
2026-04-29 19:14 50.40486 -6.36441 37037 ft 475 kts 74°
2026-04-29 19:14 50.42799 -6.26720 37044 ft 476 kts 74°
2026-04-29 19:15 50.45104 -6.16990 37046 ft 476 kts 74°
2026-04-29 19:15 50.47403 -6.07241 37049 ft 476 kts 74°
2026-04-29 19:16 50.49688 -5.97507 37038 ft 474 kts 74°
2026-04-29 19:16 50.51960 -5.87787 37042 ft 473 kts 75°
2026-04-29 19:17 50.54216 -5.78090 37049 ft 472 kts 75°
2026-04-29 19:17 50.56460 -5.68401 37057 ft 471 kts 75°
2026-04-29 19:18 50.58693 -5.58714 37056 ft 471 kts 75°
2026-04-29 19:18 50.60913 -5.49039 37055 ft 470 kts 75°
2026-04-29 19:19 50.63116 -5.39395 37058 ft 471 kts 75°
2026-04-29 19:19 50.65329 -5.29662 37054 ft 472 kts 75°
2026-04-29 19:20 50.67537 -5.19906 37089 ft 473 kts 75°
2026-04-29 19:20 50.69743 -5.10119 37088 ft 473 kts 75°
2026-04-29 19:21 50.71939 -5.00326 37073 ft 474 kts 75°
2026-04-29 19:21 50.74129 -4.90515 37073 ft 474 kts 75°
2026-04-29 19:22 50.76298 -4.80755 37078 ft 474 kts 75°
2026-04-29 19:22 50.78469 -4.70937 37084 ft 473 kts 75°
2026-04-29 19:23 50.80632 -4.61109 37086 ft 472 kts 75°
2026-04-29 19:23 50.82778 -4.51313 37092 ft 471 kts 75°
2026-04-29 19:24 50.84916 -4.41503 37099 ft 471 kts 75°
2026-04-29 19:24 50.87046 -4.31687 37107 ft 471 kts 76°
2026-04-29 19:25 50.89165 -4.21871 37077 ft 471 kts 75°
2026-04-29 19:25 50.91270 -4.12080 37118 ft 470 kts 75°
2026-04-29 19:26 50.93353 -4.02340 37118 ft 469 kts 75°
2026-04-29 19:26 50.95440 -3.92533 37129 ft 469 kts 76°
2026-04-29 19:27 50.97516 -3.82733 37128 ft 469 kts 76°
2026-04-29 19:27 50.99582 -3.72928 37124 ft 468 kts 75°
2026-04-29 19:28 51.01639 -3.63125 37142 ft 468 kts 75°
2026-04-29 19:28 51.03686 -3.53319 37151 ft 468 kts 75°
2026-04-29 19:29 51.05726 -3.43496 37151 ft 468 kts 75°
2026-04-29 19:29 51.07760 -3.33660 37159 ft 468 kts 76°
2026-04-29 19:30 51.09787 -3.23801 37165 ft 469 kts 75°
2026-04-29 19:30 51.11809 -3.13918 37184 ft 470 kts 75°
2026-04-29 19:31 51.13829 -3.04001 37180 ft 471 kts 75°
2026-04-29 19:31 51.15844 -2.94059 37173 ft 472 kts 76°
2026-04-29 19:32 51.17856 -2.84077 37164 ft 473 kts 75°
2026-04-29 19:32 51.19856 -2.74104 37165 ft 473 kts 75°
2026-04-29 19:33 51.21855 -2.64084 37177 ft 474 kts 75°
2026-04-29 19:33 51.23835 -2.54113 37172 ft 475 kts 76°
2026-04-29 19:34 51.25824 -2.44043 37174 ft 475 kts 76°
2026-04-29 19:34 51.27802 -2.33974 37172 ft 475 kts 76°
2026-04-29 19:35 51.29772 -2.23892 37192 ft 475 kts 76°
2026-04-29 19:35 51.31733 -2.13807 37195 ft 475 kts 76°
2026-04-29 19:36 51.33680 -2.03744 37210 ft 473 kts 75°
2026-04-29 19:36 51.35703 -1.93758 37207 ft 472 kts 73°
2026-04-29 19:37 51.37955 -1.83907 37212 ft 469 kts 72°
2026-04-29 19:37 51.40144 -1.74115 37209 ft 465 kts 73°
2026-04-29 19:38 51.42282 -1.64358 37222 ft 463 kts 73°
2026-04-29 19:38 51.44408 -1.54638 37222 ft 462 kts 73°
2026-04-29 19:39 51.46524 -1.44925 37228 ft 462 kts 73°
2026-04-29 19:39 51.48632 -1.35197 37226 ft 462 kts 73°
2026-04-29 19:40 51.50736 -1.25449 37238 ft 463 kts 73°
2026-04-29 19:40 51.52817 -1.15644 37237 ft 463 kts 75°
2026-04-29 19:41 51.54483 -1.05648 37237 ft 463 kts 78°
2026-04-29 19:41 51.56060 -0.95610 37228 ft 464 kts 78°
2026-04-29 19:42 51.57650 -0.85554 37250 ft 464 kts 78°
2026-04-29 19:42 51.59242 -0.75524 37250 ft 463 kts 77°
2026-04-29 19:43 51.60816 -0.65576 37255 ft 462 kts 77°
2026-04-29 19:43 51.62388 -0.55572 37266 ft 460 kts 78°
2026-04-29 19:44 51.63949 -0.45577 37263 ft 460 kts 78°
2026-04-29 19:44 51.65499 -0.35588 37401 ft 459 kts 78°
2026-04-29 19:45 51.67040 -0.25604 37402 ft 459 kts 78°
2026-04-29 19:45 51.68646 -0.15638 37403 ft 460 kts 76°
2026-04-29 19:46 51.70281 -0.05679 37379 ft 460 kts 78°
2026-04-29 19:46 51.71823 0.04329 37276 ft 460 kts 78°
2026-04-29 19:47 51.73357 0.14323 37286 ft 459 kts 78°
2026-04-29 19:47 51.74893 0.24307 37288 ft 458 kts 78°
2026-04-29 19:48 51.76422 0.34280 37288 ft 457 kts 78°
2026-04-29 19:48 51.77931 0.44187 37288 ft 457 kts 78°
2026-04-29 19:49 51.79450 0.54218 37278 ft 456 kts 78°
2026-04-29 19:49 51.80940 0.64120 37263 ft 456 kts 78°
2026-04-29 19:50 51.82461 0.74082 37271 ft 456 kts 78°
2026-04-29 19:50 51.84007 0.84055 37274 ft 457 kts 77°
2026-04-29 19:51 51.85477 0.92282 37273 ft 458 kts 75°
2026-04-29 19:51 51.87327 1.02142 37285 ft 458 kts 75°
2026-04-29 19:52 51.89139 1.12007 37276 ft 456 kts 75°
2026-04-29 19:52 51.90911 1.21852 37286 ft 454 kts 76°
2026-04-29 19:53 51.92661 1.31667 37286 ft 453 kts 76°
2026-04-29 19:53 51.94403 1.41480 37291 ft 452 kts 76°
2026-04-29 19:54 51.96983 1.56108 36858 ft 457 kts 76°
2026-04-29 19:54 51.97860 1.61102 36133 ft 460 kts 76°
2026-04-29 19:54 51.98734 1.66092 35300 ft 460 kts 76°
2026-04-29 19:55 51.99593 1.71100 34443 ft 460 kts 77°
2026-04-29 19:55 52.00399 1.76133 33452 ft 461 kts 77°
2026-04-29 19:55 52.01178 1.81174 32484 ft 461 kts 77°
2026-04-29 19:55 52.01948 1.86209 31794 ft 456 kts 78°
2026-04-29 19:56 52.02712 1.91192 31118 ft 452 kts 77°
2026-04-29 19:56 52.03470 1.96123 30447 ft 449 kts 77°
2026-04-29 19:56 52.04223 2.01015 29725 ft 444 kts 77°
2026-04-29 19:56 52.04970 2.05855 29050 ft 439 kts 77°
2026-04-29 19:57 52.05707 2.10641 28411 ft 434 kts 77°
2026-04-29 19:57 52.06433 2.15375 27768 ft 429 kts 77°
2026-04-29 19:57 52.07153 2.20079 27134 ft 426 kts 77°
2026-04-29 19:57 52.07862 2.24726 26519 ft 422 kts 77°
2026-04-29 19:58 52.08563 2.29334 25914 ft 419 kts 77°
2026-04-29 19:58 52.09258 2.33919 25309 ft 415 kts 78°
2026-04-29 19:58 52.09945 2.38459 24712 ft 413 kts 78°
2026-04-29 19:58 52.10627 2.42974 24124 ft 410 kts 78°
2026-04-29 19:59 52.11302 2.47417 23456 ft 408 kts 76°
2026-04-29 19:59 52.12346 2.51689 22991 ft 403 kts 63°
2026-04-29 19:59 52.13763 2.55571 22647 ft 395 kts 60°
2026-04-29 19:59 52.15201 2.59374 22283 ft 395 kts 60°
2026-04-29 20:00 52.16637 2.63191 21962 ft 397 kts 60°
2026-04-29 20:00 52.18069 2.67048 21607 ft 399 kts 61°
2026-04-29 20:00 52.19488 2.70917 21254 ft 397 kts 61°
2026-04-29 20:00 52.20891 2.74777 20900 ft 394 kts 61°
2026-04-29 20:01 52.22278 2.78621 20554 ft 391 kts 62°
2026-04-29 20:01 52.23648 2.82435 20207 ft 389 kts 62°
2026-04-29 20:01 52.25012 2.86239 19864 ft 387 kts 62°
2026-04-29 20:01 52.26365 2.90023 19528 ft 385 kts 62°
2026-04-29 20:02 52.27708 2.93782 19188 ft 382 kts 62°
2026-04-29 20:02 52.29042 2.97525 18859 ft 380 kts 61°
2026-04-29 20:02 52.30367 3.01245 18507 ft 378 kts 61°
2026-04-29 20:02 52.31238 3.03694 18257 ft 376 kts 61°
2026-04-29 20:03 52.32989 3.08620 17786 ft 373 kts 61°
2026-04-29 20:03 52.34284 3.12272 17459 ft 370 kts 61°
2026-04-29 20:03 52.35570 3.15901 17126 ft 367 kts 62°
2026-04-29 20:03 52.36842 3.19499 16786 ft 364 kts 62°
2026-04-29 20:04 52.38105 3.23076 16472 ft 362 kts 62°
2026-04-29 20:04 52.39357 3.26629 16146 ft 359 kts 62°
2026-04-29 20:04 52.40601 3.30161 15831 ft 357 kts 62°
2026-04-29 20:04 52.41836 3.33670 15519 ft 354 kts 62°
2026-04-29 20:05 52.43061 3.37160 15208 ft 352 kts 62°
2026-04-29 20:05 52.44277 3.40629 14906 ft 350 kts 63°
2026-04-29 20:05 52.45237 3.44249 14584 ft 344 kts 75°
2026-04-29 20:05 52.45779 3.48051 14294 ft 341 kts 78°
2026-04-29 20:06 52.46277 3.51836 13958 ft 339 kts 78°
2026-04-29 20:06 52.46775 3.55552 13648 ft 337 kts 78°
2026-04-29 20:06 52.47288 3.59297 13347 ft 335 kts 78°
2026-04-29 20:06 52.47807 3.63018 13037 ft 334 kts 77°
2026-04-29 20:07 52.48327 3.66721 12745 ft 332 kts 77°
2026-04-29 20:07 52.48849 3.70411 12450 ft 331 kts 77°
2026-04-29 20:07 52.49370 3.74095 12156 ft 331 kts 77°
2026-04-29 20:07 52.49886 3.77746 11878 ft 325 kts 77°
2026-04-29 20:08 52.50389 3.81314 11590 ft 318 kts 77°
2026-04-29 20:08 52.50717 3.83637 11397 ft 313 kts 78°
2026-04-29 20:08 52.51364 3.88233 11032 ft 304 kts 78°
2026-04-29 20:08 52.51834 3.91590 10762 ft 298 kts 78°
2026-04-29 20:09 52.52269 3.94881 10488 ft 287 kts 83°
2026-04-29 20:09 52.52174 3.98089 10347 ft 277 kts 102°
2026-04-29 20:09 52.51573 4.01017 10262 ft 267 kts 109°
2026-04-29 20:09 52.50892 4.03808 10096 ft 259 kts 110°
2026-04-29 20:10 52.50216 4.06520 9981 ft 257 kts 110°
2026-04-29 20:10 52.49541 4.09232 9878 ft 256 kts 110°
2026-04-29 20:10 52.48878 4.11900 9645 ft 254 kts 110°
2026-04-29 20:10 52.48215 4.14576 9350 ft 252 kts 110°
2026-04-29 20:11 52.47558 4.17234 9030 ft 251 kts 110°
2026-04-29 20:11 52.46904 4.19885 8702 ft 250 kts 110°
2026-04-29 20:11 52.46253 4.22524 8386 ft 249 kts 110°
2026-04-29 20:11 52.45608 4.25144 8093 ft 247 kts 110°
2026-04-29 20:12 52.44818 4.27623 7700 ft 248 kts 126°
2026-04-29 20:12 52.43481 4.29464 7352 ft 256 kts 148°
2026-04-29 20:12 52.41766 4.30312 7033 ft 263 kts 171°
2026-04-29 20:12 52.39932 4.30023 6724 ft 270 kts 192°
2026-04-29 20:13 52.38182 4.28863 6394 ft 272 kts 200°
2026-04-29 20:13 52.37058 4.27973 6219 ft 270 kts 201°
2026-04-29 20:13 52.34831 4.26155 5867 ft 262 kts 202°
2026-04-29 20:13 52.33215 4.24999 5561 ft 246 kts 188°
2026-04-29 20:14 52.31564 4.24873 5311 ft 233 kts 164°
2026-04-29 20:14 52.30048 4.25653 4994 ft 227 kts 154°
2026-04-29 20:14 52.28597 4.26640 4699 ft 226 kts 153°
2026-04-29 20:14 52.27158 4.27638 4432 ft 223 kts 152°
2026-04-29 20:15 52.25824 4.28768 4424 ft 220 kts 139°
2026-04-29 20:15 52.24657 4.30442 4380 ft 220 kts 133°
2026-04-29 20:15 52.23568 4.32175 4192 ft 217 kts 133°
2026-04-29 20:15 52.22519 4.33854 4108 ft 206 kts 132°
2026-04-29 20:16 52.21536 4.35419 4011 ft 187 kts 132°
2026-04-29 20:16 52.20662 4.36854 3785 ft 171 kts 124°
2026-04-29 20:16 52.20238 4.38559 3448 ft 164 kts 97°
2026-04-29 20:16 52.20179 4.40396 3190 ft 160 kts 92°
2026-04-29 20:17 52.20156 4.42180 2957 ft 155 kts 92°
2026-04-29 20:17 52.20133 4.43934 2675 ft 154 kts 92°
2026-04-29 20:17 52.20108 4.45653 2450 ft 150 kts 92°
2026-04-29 20:17 52.20084 4.47364 2259 ft 152 kts 92°
2026-04-29 20:18 52.20061 4.49097 2094 ft 151 kts 89°
2026-04-29 20:18 52.20386 4.50721 2013 ft 154 kts 67°
2026-04-29 20:18 52.20863 4.52313 1994 ft 158 kts 70°
2026-04-29 20:18 52.21346 4.53920 1978 ft 161 kts 66°
2026-04-29 20:19 52.21906 4.55509 1976 ft 161 kts 64°
2026-04-29 20:19 52.22490 4.57061 1987 ft 160 kts 63°
2026-04-29 20:19 52.23082 4.58605 1972 ft 160 kts 64°
2026-04-29 20:19 52.23672 4.60136 1961 ft 160 kts 63°
2026-04-29 20:20 52.24272 4.61693 1722 ft 162 kts 63°
2026-04-29 20:20 52.24868 4.63236 1486 ft 159 kts 63°
2026-04-29 20:20 52.25452 4.64746 1316 ft 155 kts 64°
2026-04-29 20:20 52.26005 4.66180 1076 ft 143 kts 64°
2026-04-29 20:21 52.26501 4.67469 890 ft 125 kts 63°
2026-04-29 20:21 52.26952 4.68645 778 ft 124 kts 61°
2026-04-29 20:21 52.27442 4.69872 647 ft 132 kts 61°
2026-04-29 20:21 52.27925 4.71157 412 ft 135 kts 60°
2026-04-29 20:22 52.28431 4.72459 210 ft 133 kts 60°
2026-04-29 20:22 52.28908 4.73708 38 ft 129 kts 60°
2026-04-29 20:22 52.29353 4.74884 3 ft 109 kts 56°
2026-04-29 20:22 52.29681 4.75722 3 ft 64 kts 58°
2026-04-29 20:23 52.29842 4.76140 1 ft 33 kts 58°
2026-04-29 20:23 52.29962 4.76444 2 ft 30 kts 49°
2026-04-29 20:23 52.30090 4.76590 3 ft 17 kts 28°
2026-04-29 20:23 52.30160 4.76650 4 ft 8 kts 28°
2026-04-29 20:24 52.30193 4.76679 4 ft 4 kts 28°
2026-04-29 20:24 52.30221 4.76704 4 ft 5 kts 28°
2026-04-29 20:24 52.30241 4.76721 4 ft 3 kts 26°
2026-04-29 20:24 52.30290 4.76775 4 ft 15 kts 45°
2026-04-29 20:25 52.30359 4.76940 4 ft 18 kts 58°
2026-04-29 20:25 52.30425 4.77113 4 ft 18 kts 58°
2026-04-29 20:25 52.30491 4.77287 4 ft 18 kts 58°
2026-04-29 20:25 52.30557 4.77461 4 ft 18 kts 58°
2026-04-29 20:26 52.30651 4.77583 4 ft 18 kts 11°
2026-04-29 20:26 52.30776 4.77598 4 ft 18 kts
2026-04-29 20:26 52.30901 4.77610 4 ft 18 kts
2026-04-29 20:26 52.31026 4.77622 4 ft 18 kts
2026-04-29 20:27 52.31151 4.77633 4 ft 18 kts
2026-04-29 20:27 52.31234 4.77641 4 ft 18 kts
2026-04-29 20:27 52.31401 4.77653 4 ft 18 kts 356°
2026-04-29 20:27 52.31509 4.77560 4 ft 18 kts 316°
2026-04-29 20:28 52.31574 4.77391 4 ft 18 kts 279°
2026-04-29 20:28 52.31572 4.77189 4 ft 18 kts 265°
2026-04-29 20:28 52.31564 4.76986 4 ft 18 kts 266°
2026-04-29 20:28 52.31558 4.76782 4 ft 15 kts 267°
2026-04-29 20:29 52.31515 4.76685 4 ft 12 kts 195°
2026-04-29 20:29 52.31441 4.76636 4 ft 12 kts 210°
2026-04-29 20:29 52.31373 4.76566 4 ft 12 kts 214°
2026-04-29 20:29 52.31306 4.76493 4 ft 12 kts 214°
2026-04-29 20:30 52.31248 4.76477 4 ft 9 kts 149°
2026-04-29 20:30 52.31217 4.76532 4 ft 2 kts 124°
2026-04-29 20:30 52.31209 4.76554 4 ft 2 kts 123°
2026-04-29 20:30 52.31207 4.76558 4 ft 0 kts 123°